www.pogodaiklimat.ru

Погода и климат >> Архив погоды >> Великобритания >> Аэропорт Хитроу


АРХИВ ПОГОДЫ в Аэропорту Хитроу

Время (UTC), дата Ветер
(напр.,м/с)
 
Видим.   Явления Облачность Т
(С)
Тd
(С)
f
(%)
Тe
(С)
Тes
(С)
Комфортность P
(гПа)
Po
(гПа)
Тmin
(С)
Tmax
(С)
R
(мм)
R24
(мм)
S
(см)
02 16.05 СВ 3 16 км н/о +8.7 +5.1 78 +7 +7 по сезону 1022.2 1019.1
03 16.05 СВ 3 19 км н/о +8.1 +4.8 80 +5 +5 прохладно 1021.7 1018.6
04 16.05 СВ 3 19 км н/о +7.6 +4.9 83 +5 +5 по сезону 1021.3 1018.2
05 16.05 СВ 2 17 км н/о +7.6 +5.4 86 +6 +6 по сезону 1021.3 1018.2
06 16.05 СВ 2 18 км н/о +9.7 +6.5 80 +8 +8 по сезону 1021.3 1018.2 +7.4
07 16.05 СВ 4 17 км н/о +11.7 +7.5 75 +10 +10 по сезону 1021.0 1018.0
08 16.05 В 3 20 км н/о +14.0 +8.0 67 +13 +13 тепло 1021.0 1018.0
09 16.05 В 4 26 км н/о +15.9 +7.3 57 +15 +15 тепло 1020.4 1017.4
10 16.05 В 5 30 км н/о +17.2 +3.9 41 +17 +17 тепло 1020.0 1017.0
11 16.05 В 4 35 км н/о +17.4 +3.9 41 +17 +17 тепло 1019.5 1016.5
12 16.05 В 5 30 км н/о +16.8 +5.0 46 +16 +16 по сезону 1018.9 1015.9
13 16.05 В 5 45 км н/о +17.9 +4.0 40 +17 +17 тепло 1018.3 1015.3
14 16.05 В 6
{13}
45 км н/о +17.9 +2.5 36 +17 +17 тепло 1017.6 1014.6
15 16.05 СВ 6 70 км н/о +18.2 +1.2 32 +18 +18 тепло 1016.9 1013.9
16 16.05 СВ 6 50 км н/о +17.6 +2.2 36 +17 +17 тепло 1016.3 1013.3
17 16.05 В 6 60 км н/о +16.0 +0.4 35 +15 +15 тепло 1016.0 1013.0
18 16.05 В 5 60 км н/о +15.7 +1.2 37 +15 +15 по сезону 1015.6 1012.7 +19.0
19 16.05 СВ 5 60 км н/о +14.6 +1.4 41 +13 +13 тепло 1015.4 1012.4
20 16.05 СВ 4 55 км н/о +13.1 +2.2 48 +12 +12 по сезону 1015.3 1012.3
21 16.05 СВ 5 55 км н/о +12.2 +2.4 51 +10 +10 по сезону 1015.5 1012.4
22 16.05 СВ 4 50 км н/о +11.2 +3.5 59 +9 +9 тепло 1015.1 1012.1
23 16.05 СВ 4 45 км н/о +10.4 +4.3 66 +8 +8 по сезону 1014.4 1011.3
00 17.05 СВ 4 35 км н/о +9.6 +4.9 72 +7 +7 по сезону 1013.8 1010.7
01 17.05 СВ 3 29 км н/о +8.9 +5.4 79 +7 +7 по сезону 1013.0 1010.0
02 17.05 С 2 30 км н/о +8.5 +5.1 79 +7 +7 по сезону 1012.2 1009.1
03 17.05 С 3 25 км н/о +9.3 +6.4 82 +7 +7 по сезону 1011.5 1008.5
04 17.05 С 3 24 км н/о +9.9 +7.0 82 +8 +8 тепло 1011.0 1007.9
05 17.05 С 4 25 км н/о +10.6 +7.5 81 +8 +8 по сезону 1010.5 1007.5
06 17.05 СВ 4 30 км н/о +11.1 +7.5 78 +9 +9 по сезону 1010.2 1007.2 +8.4
07 17.05 СВ 4 30 км н/о +11.6 +7.3 75 +9 +9 по сезону 1009.9 1006.9
08 17.05 СВ 4 26 км н/о +11.5 +7.8 78 +9 +9 по сезону 1009.4 1006.4
09 17.05 СВ 4 26 км н/о +14.0 +8.9 71 +13 +13 по сезону 1008.9 1005.9
10 17.05 С 4 24 км н/о +13.4 +8.4 72 +12 +12 по сезону 1008.6 1005.6
11 17.05 СВ 4 27 км н/о +13.6 +8.1 69 +12 +12 прохладно 1008.5 1005.5
12 17.05 СВ 4 30 км н/о +14.7 +8.1 65 +14 +14 по сезону 1008.3 1005.3
13 17.05 СВ 5 27 км н/о +14.1 +8.1 67 +13 +13 по сезону 1008.3 1005.3
14 17.05 СВ 4 21 км н/о +13.4 +9.1 75 +12 +12 по сезону 1008.2 1005.2
15 17.05 СВ 3 20 км в посл. час дождь н/о +13.2 +9.5 78 +12 +12 прохладно 1007.9 1004.9
16 17.05 СВ 4 11 км н/о +13.2 +9.1 76 +12 +12 по сезону 1007.5 1004.5
17 17.05 В 4 5000 м дым н/о +12.4 +9.9 85 +10 +10 прохладно 1007.4 1004.3
18 17.05 СВ 3 18 км н/о +12.2 +10.6 90 +11 +11 прохладно 1007.0 1004.0 +14.8 0.0
19 17.05 СВ 4 19 км н/о +11.9 +10.0 88 +10 +10 по сезону 1007.2 1004.2
20 17.05 С 2 24 км н/о +11.8 +9.9 88 +11 +11 по сезону 1007.4 1004.4
21 17.05 С 3 17 км н/о +11.5 +9.6 88 +10 +10 по сезону 1007.4 1004.4
22 17.05 СВ 2 15 км в посл. час дождь н/о +11.3 +9.3 87 +10 +10 тепло 1007.2 1004.2
23 17.05 С 1 15 км н/о +11.2 +9.3 88 +11 +11 тепло 1007.1 1004.1
00 18.05 С 2 11 км н/о +11.0 +9.4 90 +10 +10 по сезону 1006.9 1003.9 0.0
01 18.05 С 2 10 км н/о +11.0 +9.4 90 +10 +10 тепло 1006.7 1003.6
02 18.05 С 2 9000 м дым н/о +10.6 +9.3 92 +10 +10 тепло 1006.5 1003.4
03 18.05 СВ 2 8000 м дым н/о +10.0 +9.0 93 +9 +9 по сезону 1006.1 1003.1
04 18.05 СВ 1 8000 м дым н/о +9.9 +9.0 94 +9 +9 тепло 1005.9 1002.8
05 18.05 С 1 8000 м дым н/о +10.3 +9.3 94 +10 +10 тепло 1006.0 1003.0
06 18.05 СВ 2 9000 м дым н/о +10.9 +9.3 90 +10 +10 по сезону 1006.1 1003.1 +9.7 0.0
07 18.05 СЗ 1 13 км н/о +12.0 +8.4 79 +12 +12 тепло 1006.2 1003.2
08 18.05 СЗ 1 13 км н/о +13.1 +8.9 76 +13 +13 тепло 1006.4 1003.4
09 18.05 З 2 15 км н/о +14.1 +8.1 67 +14 +14 по сезону 1006.5 1003.5
10 18.05 СЗ 1 10 км н/о +14.4 +8.7 69 +15 +15 по сезону 1006.5 1003.5
11 18.05 СЗ 2 20 км н/о +15.8 +8.0 60 +16 +16 по сезону 1006.5 1003.5
12 18.05 З 2 30 км н/о +15.7 +7.3 57 +16 +16 по сезону 1006.2 1003.2
13 18.05 ЮВ 3 26 км н/о +16.4 +8.4 59 +16 +16 тепло 1006.4 1003.4
14 18.05 С 2 25 км н/о +16.8 +8.3 57 +17 +17 тепло 1006.3 1003.3
15 18.05 СЗ 3 28 км н/о +16.9 +8.4 57 +17 +17 тепло 1006.3 1003.4
16 18.05 СЗ 3 30 км н/о +16.3 +8.7 61 +16 +16 тепло 1006.4 1003.5
17 18.05 СЗ 3 30 км н/о +16.5 +8.8 60 +16 +16 тепло 1006.7 1003.8
18 18.05 С 4 40 км н/о +15.6 +9.5 67 +15 +15 по сезону 1007.2 1004.2 +17.2
19 18.05 С 2 65 км н/о +14.9 +8.6 66 +15 +15 тепло 1007.7 1004.8
20 18.05 СВ 2 45 км н/о +14.2 +8.9 70 +14 +14 тепло 1008.0 1005.0
21 18.05 СВ 2 35 км н/о +13.3 +9.2 76 +13 +13 по сезону 1008.3 1005.3
22 18.05 С 1 27 км н/о +12.5 +9.2 80 +13 +13 тепло 1008.4 1005.3
23 18.05 СВ 1 20 км н/о +11.8 +9.3 85 +12 +12 тепло 1008.6 1005.6
00 19.05 С 1 18 км н/о +10.6 +8.7 88 +10 +10 по сезону 1008.5 1005.5
01 19.05 С 1 15 км н/о +10.0 +8.6 91 +9 +9 тепло 1008.4 1005.4
02 19.05 С 1 12 км н/о +9.1 +8.1 93 +8 +8 по сезону 1008.6 1005.6
03 19.05 С 1 8000 м дымка н/о +8.7 +8.1 96 +9 +9 по сезону 1008.7 1005.7
04 19.05 С 2 8000 м дымка н/о +8.9 +8.3 96 +7 +7 по сезону 1008.7 1005.6
05 19.05 СЗ 1 7000 м дымка н/о +8.2 +7.6 96 +8 +8 по сезону 1009.0 1005.9
06 19.05 С 2 9000 м дымка н/о +9.9 +9.1 95 +9 +9 по сезону 1009.2 1006.1 +8.2
07 19.05 СВ 2 8000 м дым н/о +11.2 +9.8 91 +10 +10 по сезону 1009.3 1006.3
08 19.05 С 2 10 км дым н/о +12.3 +10.3 88 +11 +11 по сезону 1009.6 1006.6
09 19.05 С 2 15 км н/о +13.3 +9.8 79 +13 +13 по сезону 1009.9 1006.9
10 19.05 С 3 21 км н/о +14.5 +9.7 73 +14 +14 по сезону 1010.0 1007.0
11 19.05 С 3 25 км н/о +15.5 +9.6 68 +15 +15 по сезону 1010.1 1007.2
12 19.05 С 2 30 км н/о +16.3 +8.7 61 +16 +16 по сезону 1010.2 1007.2
13 19.05 С 2 25 км н/о +17.4 +10.0 62 +18 +18 тепло 1010.1 1007.1
14 19.05 СВ 2 21 км в посл. час дождь н/о +17.6 +9.9 61 +18 +18 тепло 1009.8 1006.8
15 19.05 С 2 20 км н/о +18.0 +8.8 55 +19 +19 тепло 1009.7 1006.8
16 19.05 ЮВ 3 22 км н/о +17.4 +9.6 60 +18 +18 тепло 1009.7 1006.7
17 19.05 В 1 25 км в посл. час дождь н/о +17.4 +9.5 60 +18 +18 тепло 1009.5 1006.6
18 19.05 ЮЗ 1 23 км н/о +18.0 +9.1 56 +20 +20 тепло 1009.5 1006.5 +18.6 0.0
19 19.05 СВ 2 35 км н/о +17.5 +8.3 55 +18 +18 тепло 1009.9 1006.9
20 19.05 СВ 2 28 км н/о +16.5 +8.6 60 +17 +17 тепло 1010.4 1007.4
21 19.05 С 2 29 км н/о +15.9 +8.5 61 +16 +16 тепло 1010.9 1007.9
22 19.05 С 2 18 км н/о +15.3 +9.7 69 +15 +15 тепло 1011.0 1008.0
23 19.05 СЗ 2 17 км н/о +13.7 +9.7 77 +13 +13 тепло 1011.2 1008.2
00 20.05 С 2 13 км н/о +13.7 +10.2 79 +13 +13 тепло 1011.1 1008.1
01 20.05 С 2 11 км н/о +13.3 +10.2 81 +13 +13 тепло 1011.1 1008.1
02 20.05 0 9000 м дым н/о +12.8 +10.3 85 1010.9 1007.9
03 20.05 0 14 км н/о +12.6 +9.7 82 1011.0 1008.0
04 20.05 0 9000 м дым н/о +12.5 +10.3 86 1011.1 1008.1
05 20.05 0 8000 м дым н/о +12.5 +10.1 85 1011.3 1008.2
06 20.05 0 9000 м дым н/о +12.7 +10.1 84 1011.6 1008.6 +12.2
07 20.05 0 14 км н/о +13.6 +10.2 80 1012.0 1009.0
08 20.05 0 18 км н/о +14.6 +9.7 72 1012.4 1009.4
09 20.05 0 15 км н/о +16.3 +10.1 67 1012.6 1009.6
10 20.05 0 26 км н/о +17.5 +9.4 59 1012.5 1009.6
11 20.05 0 50 км н/о +19.2 +9.4 53 1012.6 1009.7
12 20.05 0 35 км н/о +17.8 +8.3 54 1012.8 1009.9
13 20.05 0 40 км н/о +18.4 +8.8 54 1012.9 1009.9
15 20.05 0 50 км н/о +19.5 +7.9 47 1012.9 1009.9
16 20.05 0 55 км н/о +19.9 +7.8 46 1013.0 1010.1
17 20.05 0 55 км н/о +19.2 +7.5 47 1013.1 1010.2
18 20.05 0 45 км н/о +18.1 +8.2 52 1013.5 1010.5 +20.4
19 20.05 0 55 км н/о +18.3 +7.3 49 1013.8 1010.9
20 20.05 0 50 км н/о +16.7 +7.7 55 1014.2 1011.2
21 20.05 0 45 км н/о +15.2 +7.8 61 1014.8 1011.8
22 20.05 0 45 км н/о +14.2 +7.7 65 1015.3 1012.3
23 20.05 0 35 км н/о +13.0 +7.9 71 1015.6 1012.6
00 21.05 0 35 км н/о +12.6 +7.6 72 1015.8 1012.7
01 21.05 0 35 км н/о +11.3 +7.2 76 1015.9 1012.9
02 21.05 0 40 км н/о +11.4 +7.1 75 1016.1 1013.1
03 21.05 0 35 км н/о +10.3 +6.6 78 1016.5 1013.5
04 21.05 0 30 км н/о +10.0 +6.6 79 1016.9 1013.8
05 21.05 0 29 км н/о +9.9 +6.6 80 1017.2 1014.1
06 21.05 0 30 км н/о +11.2 +7.0 75 1017.6 1014.6 +9.6
07 21.05 0 35 км н/о +13.1 +7.3 68 1018.3 1015.2
08 21.05 0 30 км н/о +14.5 +7.0 61 1018.6 1015.5
09 21.05 0 40 км н/о +16.2 +6.9 54 1018.5 1015.5
10 21.05 0 45 км н/о +17.7 +5.7 45 1018.4 1015.5
11 21.05 0 30 км н/о +18.3 +6.0 44 1018.5 1015.5
12 21.05 0 45 км н/о +19.2 +6.1 42 1018.5 1015.5
13 21.05 0 50 км н/о +19.5 +5.9 41 1018.5 1015.5
14 21.05 0 70 км н/о +20.3 +5.7 38 1018.5 1015.5
15 21.05 0 55 км н/о +20.3 +5.3 37 1018.4 1015.4
16 21.05 0 65 км н/о +20.0 +5.5 39 1018.5 1015.5
17 21.05 0 60 км н/о +19.5 +5.4 40 1018.5 1015.5
18 21.05 0 65 км н/о +19.7 +5.0 38 1018.6 1015.6 +20.9
19 21.05 0 55 км н/о +18.9 +5.8 42 1018.8 1015.9
20 21.05 0 40 км н/о +16.9 +5.9 48 1019.2 1016.2
21 21.05 0 50 км н/о +16.3 +6.0 50 1019.6 1016.6
22 21.05 0 45 км н/о +14.9 +5.9 55 1019.8 1016.7
23 21.05 0 50 км н/о +14.1 +4.8 53 1020.0 1017.0
00 22.05 0 50 км н/о +12.0 +5.2 63 1019.9 1016.9
01 22.05 0 60 км н/о +11.3 +5.3 67 1020.2 1017.1
02 22.05 0 65 км н/о +11.4 +3.9 60 1020.5 1017.4
03 22.05 0 65 км н/о +10.4 +3.3 61 1020.5 1017.5
04 22.05 0 65 км н/о +10.8 +3.1 59 1020.3 1017.2
05 22.05 0 60 км н/о +11.2 +3.3 58 1020.3 1017.3
06 22.05 0 40 км н/о +11.7 +3.7 58 1020.5 1017.5 +10.4
07 22.05 0 50 км н/о +13.4 +3.5 51 1020.7 1017.7
08 22.05 0 60 км н/о +15.4 +5.0 50 1020.6 1017.6
09 22.05 0 50 км н/о +15.9 +3.6 44 1020.8 1017.8
10 22.05 0 30 км н/о +18.2 +5.0 42 1020.6 1017.7
11 22.05 0 60 км н/о +19.2 +4.4 38 1020.4 1017.4
12 22.05 0 65 км н/о +19.6 +4.6 37 1020.0 1017.0
13 22.05 0 >70 км н/о +20.1 +6.2 40 1019.7 1016.7
14 22.05 0 70 км н/о +20.8 +5.2 36 1019.2 1016.3
15 22.05 0 70 км н/о +20.8 +4.3 34 1019.0 1016.0
16 22.05 0 65 км н/о +20.3 +5.3 37 1018.7 1015.7
17 22.05 ЮЗ 5 60 км н/о +19.7 +6.0 41 +20 +20 тепло 1018.4 1015.4
18 22.05 0 60 км н/о +20.1 +6.8 42 1018.1 1015.2 +22.5
19 22.05 ЮЗ 6 65 км н/о +18.5 +6.0 44 +18 +18 тепло 1018.0 1015.1
20 22.05 0 >70 км н/о +17.4 +5.0 44 1018.2 1015.2
21 22.05 ЮЗ 4 >70 км н/о +15.7 +4.5 47 +15 +15 тепло 1018.6 1015.6
22 22.05 ЮЗ 4 40 км н/о +14.5 +3.7 48 +13 +13 тепло 1018.6 1015.6
23 22.05 0 65 км н/о +13.0 +4.2 55 1018.6 1015.5
00 23.05 ЮЗ 3 >70 км н/о +11.7 +4.4 61 +10 +10 по сезону 1018.4 1015.4
01 23.05 ЮЗ 3 65 км н/о +11.3 +5.4 67 +10 +10 тепло 1018.3 1015.2

 

Местоположение метеостанции Аэропорт Хитроу (Великобритания): широта 51.48 долгота -0.45 высота над уровнем моря 25 м.

В архиве по умолчанию представлена погода в Аэропорту Хитроу за последнюю неделю. Архивные данные за месяц целиком и за предыдущие месяцы, начиная с января 2011 года, Вы можете получить, выбрав интересующий диапазон дат из раскрывающегося списка и нажав кнопку "Ввод!".


*Определитесь, кто Вы:
робот инопланетянин человек

Внимание! Время в таблицах - всемирное. Для получения местного времени необходимо прибавить поправку, которая равна 0 ч.

Смотрите также архив погоды в соседних городах и на ближайших метеорологических станциях:

Погода в Норхолте (Великобритания) (8 км)
Погода в Лондоне (Великобритания) (23 км)
Погода в Чарлвуде (Великобритания) (28 км)
Погода в Фарнборо (Великобритания) (31 км)
Погода на Аэродроме Кенли (Великобритания) (33 км)
Погода в Хай-Уикоме (Великобритания) (33 км)
Погода в Одихеме (Великобритания) (44 км)
Погода в Бенсоне (Великобритания) (46 км)
Погода в Грейвзенде (Великобритания) (52 км)
Погода в Ротамстеде (Великобритания) (66 км)

Пояснения к столбцам:

Ветер - указаны скорость ветра в м/с - средняя за 10 мин, порывы в срок и между сроками (в фигурных скобках) и направление, откуда дует ветер: С - северный, СВ - северо-восточный, В - восточный, ЮВ - юго-восточный, Ю - южный, ЮЗ - юго-западный, З - западный, СЗ - северо-западный.
Видимость - горизонтальная дальность видимости в метрах или километрах. При видимости от 1 до 10 км при отсутствии осадков обычно наблюдается дымка, при ухудшении видимости до 1 км и менее - туман. В сухую погоду видимость может ухудшаться дымом, пылью или мглою.
Явления - указаны атмосферные явления, наблюдавшиеся в срок или в последний час перед сроком; фигурными скобками обозначены явления, наблюдавшиеся между сроками (за 1-3 часа до срока); квадратными скобками обозначены град или гололедные отложения с указанием их диаметра в мм.
Облачность - указаны через наклонную черту общая и нижняя облачность в баллах и высота нижней границы облаков в метрах; квадратными скобками обозначены формы облаков: Ci - перистые, Cs - перисто-слоистые, Cc - перисто-кучевые, Ac - высококучевые, As - высокослоистые, Sc - слоисто-кучевые, Ns - слоисто-дождевые, Cu - кучевые, Cb - кучево-дождевые. Подробнее классификацию облаков см. в Атласе облаков (PDF).
T - Температура воздуха - температура, измеренная на высоте 2 м над землей.
Td - Температура точки росы - температура, при понижении до которой содержащийся в воздухе водяной пар достигнет насыщения.
f - Относительная влажность воздуха - влажноcть воздуха, измеренная на высоте 2 м над землей.
Te - Эффективная температура - температура, которую ощущает одетый по сезону человек в тени. Характеристика душности погоды. При расчете учитывается влияние влажности воздуха и скорости ветра на теплоощущения человека.
Tes - Эффективная температура на солнце - температура, которую ощущает человек, с поправкой на солнечный нагрев. Характеристика знойности погоды. Зависит от высоты солнца над горизонтом, облачности и скорости ветра. Ночью, в пасмурную погоду, а также при ветре 12 м/с и более поправка равна нулю.
P - Атмосферное давление - приведенное к уровню моря атмосферное давление.
Po - Атмосферное давление - измеренное на уровне метеостанции атмосферное давление.
Tmin - Минимальная температура - минимум температуры воздуха на высоте 2 м над землей.
Tmax - Максимальная температура - максимум температуры воздуха на высоте 2 м над землей.
R - Количество осадков - Количество выпавших осадков за период времени, мм. При наведении курсора мыши на число - период времени, за который выпало указанное количество осадков.
R24 - Количество осадков - Количество выпавших осадков за 24 часа, мм.
S - Снежный покров - Высота снежного покрова, см. При наведении курсора мыши на число - состояние снежного покрова и степень покрытия местности в баллах.